2011 – 4 km

Pl Nr Tijd Naam en voornaam GG Cat Club Km Tijd/km Uurgem
1 104 0:14:42 Van Den Bergh Bert M77 M Sen Vac 4 0:03:41 16,327
2 102 0:15:01 De Backer Frederik M75 M Sen Vacbl 4 0:03:45 15,982
3 277 0:15:07 Van Buggenhout Stijn M88 M Sen N.A. 4 0:03:47 15,877
4 81 0:15:17 Baut Danny M71 M Vet A Leeuwerik 4 0:03:49 15,703
5 213 0:15:34 De Braeckeleer Jeroen M92 M Jun Acp 4 0:03:54 15,418
6 269 0:15:40 Bergmans Stefaan M75 M Sen N.A. 4 0:03:55 15,319
7 250 0:15:43 Dumeez Werner M67 M Vet A Vac 4 0:03:56 15,270
8 209 0:15:46 Manghelinckx Jens M97 M Jun Lond 4 0:03:57 15,222
9 251 0:15:47 Beeckman Geert M M Cat Onb Runners Pepingen 4 0:03:57 15,206
10 226 0:15:51 Van De Vilde Dirk M76 M Sen N.A. 4 0:03:58 15,142
11 82 0:15:54 Vandendriesch Nancy V79 V Sen Leeuwerik 4 0:03:59 15,094
12 116 0:16:06 Geeroms Kris M61 M Vet B Lond 4 0:04:01 14,907
13 114 0:16:13 Geeroms Jeroen M96 M Jun Lond 4 0:04:03 14,800
14 298 0:16:28 Dekens Kristof M79 M Sen Liekerk Jogging Team 4 0:04:07 14,575
15 58 0:16:29 Gyselinck Stijn M90 M Sen Vac 4 0:04:07 14,560
16 88 0:16:39 Jans Piet M92 M Jun N.A. 4 0:04:10 14,414
17 109 0:16:47 Vanlonderzeele Jeroen M92 M Jun De Mollekes 4 0:04:12 14,300
18 260 0:16:54 Bastelens Gunter M73 M Sen Bvl 4 0:04:14 14,201
19 810 0:17:00 Deleu Peter M70 M Vet A Avi 4 0:04:15 14,118
20 291 0:17:06 Knops Wout M96 M Jun Leeuwerik 4 0:04:16 14,035
21 834 0:17:09 Nr 834 – Geen Gegevens Bekend #N/B N.A. N.A. 4 0:04:17 13,994
22 297 0:17:16 Van Der Vennet Lode M53 M Vet B Leeuwerik 4 0:04:19 13,900
23 286 0:17:18 Van Loock Erik M60 M Vet B Joggers Beersel 4 0:04:19 13,873
24 187 0:17:28 Swalus Jozef M57 M Vet B Joggers Beersel 4 0:04:22 13,740
25 294 0:17:30 Verbraekel Brecht M94 M Jun Vliersele Sportief 4 0:04:23 13,714
26 160 0:17:45 Peetroons Gurick M59 M Vet B Bvl 4 0:04:26 13,521
27 99 0:17:46 Amijs Tom M70 M Vet A Jc Oetingen 4 0:04:27 13,508
28 229 0:17:48 Van Veer Tom M88 M Sen N.A. 4 0:04:27 13,483
29 59 0:17:50 Puttaert Gunter M70 M Vet A Kwb Wambeek 4 0:04:28 13,458
30 813 0:17:52 Sijmus Willy M54 M Vet B N.A. 4 0:04:28 13,433
31 818 0:17:54 De Klerck Hilbert M52 M Vet B Kwb Wambeek 4 0:04:29 13,408
32 838 0:18:01 El Boujdaini Selim M94 M Jun N.A. 4 0:04:30 13,321
33 143 0:18:13 Verhasselt Arnon M98 M Jun N.A. 4 0:04:33 13,175
34 89 0:18:16 De Coninck Benoit M73 M Sen N.A. 4 0:04:34 13,139
35 166 0:18:32 De Munck Michiel M65 M Vet A Lond 4 0:04:38 12,950
36 232 0:18:34 Cornelis Andy M88 M Sen Leeuwerik 4 0:04:39 12,926
37 115 0:18:42 Geeroms Bart M92 M Jun Lond 4 0:04:41 12,834
38 147 0:18:44 De Donder Koen M76 M Sen Lond 4 0:04:41 12,811
39 282 0:18:47 Vandenbrande Steven M86 M Sen Joggers Beersel 4 0:04:42 12,777
40 171 0:18:57 De Wolf Joeri M89 M Sen N.A. 4 0:04:44 12,665
41 157 0:18:59 Borginon Bernard M72 M Sen N.A. 4 0:04:45 12,643
42 276 0:19:00 De Haseleer Philippe M63 M Vet A Liekerk Jogging Team 4 0:04:45 12,632
43 169 0:19:05 De Camps Timothy M84 M Sen N.A. 4 0:04:46 12,576
44 91 0:19:11 Debouvet Garry M81 M Sen N.A. 4 0:04:48 12,511
45 62 0:19:14 Lauwers Julien M51 M Vet C Ram 4 0:04:48 12,478
46 264 0:19:18 Nevens Jurgen M73 M Sen Start 2 Run 4 0:04:50 12,435
47 150 0:19:23 Clottemans Maarten M89 M Sen N.A. 4 0:04:51 12,382
48 202 0:19:27 Heymans Johny M45 M Vet C Liekerk Jogging Team 4 0:04:52 12,339
49 236 0:19:28 Knops Robbe M96 M Jun Leeuwerik 4 0:04:52 12,329
50 137 0:19:30 Van Bourgogne Anthony M98 M Jun Daneclub 4 0:04:53 12,308
51 283 0:19:35 Wynsdale Mark M64 M Vet A Kwb Wambeek 4 0:04:54 12,255
52 135 0:19:41 Tielemans Jonas M92 M Jun N.A. 4 0:04:55 12,193
53 126 0:19:43 Mertens Christian M56 M Vet B Joggers Beersel 4 0:04:56 12,172
54 237 0:19:45 Knops Seppe M98 M Jun Leeuwerik 4 0:04:56 12,152
55 145 0:19:46 Vanhessen Kiefer M94 M Jun Leeuwerik 4 0:04:57 12,142
56 222 0:19:48 Massage Tonny M59 M Vet B Leeuwerik 4 0:04:57 12,121
57 252 0:19:59 Haverals Sebastien M86 M Sen N.A. 4 0:05:00 12,010
58 176 0:20:02 Danchot Jean-Luc M63 M Vet A Theodo Tempo 4 0:05:00 11,980
59 103 0:20:09 De Backer Roger M55 M Vet B N.A. 4 0:05:02 11,911
60 819 0:20:18 De Klerck Steven M80 M Sen Kwb Wambeek 4 0:05:05 11,823
61 194 0:20:21 Van Campenhout Rudi M60 M Vet B Leeuwerik 4 0:05:05 11,794
62 821 0:20:25 Haegeman Wendy V90 V Sen Acp 4 0:05:06 11,755
63 123 0:20:31 Wouters Yvo M57 M Vet B Leeuwerik 4 0:05:08 11,698
64 254 0:20:33 De Coster Lennert M94 M Jun N.A. 4 0:05:08 11,679
65 827 0:20:44 Wouters David M79 M Sen Ars 4 0:05:11 11,576
66 230 0:20:45 De Ryck Thomas M92 M Jun N.A. 4 0:05:11 11,566
67 178 0:20:53 Roosenboom Erwim M69 M Vet A Ac Hamme 4 0:05:13 11,492
68 207 0:20:54 Vincke Warre M98 M Jun N.A. 4 0:05:14 11,483
69 55 0:20:56 Ceuppens Patrick M56 M Vet B Bvl 4 0:05:14 11,465
70 75 0:21:01 Clottemans Wouter M94 M Jun Kwb Wambeek 4 0:05:15 11,420
71 129 0:21:03 Ackermans Vera V67 V Mas A Vac 4 0:05:16 11,401
72 224 0:21:06 Timmermans Sven M79 M Sen N.A. 4 0:05:17 11,374
73 164 0:21:09 De Ridder Linda V64 V Mas B Lond 4 0:05:17 11,348
74 244 0:21:12 Francois Kris M84 M Sen N.A. 4 0:05:18 11,321
75 108 0:21:16 De Cocker Joritan M93 M Jun De Mollekes 4 0:05:19 11,285
76 221 0:21:17 Roobaert Axel M93 M Jun Kwb Wambeek 4 0:05:19 11,276
77 220 0:21:19 Van Belle Rony M63 M Vet A Kwb Wambeek 4 0:05:20 11,259
78 837 0:21:20 Valckiers Boot M79 M Sen N.A. 4 0:05:20 11,250
79 84 0:21:22 Bosschots Erik M76 M Sen N.A. 4 0:05:21 11,232
80 836 0:21:24 Becker Michae M81 M Sen Kwb Wambeek 4 0:05:21 11,215
81 218 0:21:25 Van Belle Glenn M98 M Jun Kwb Wambeek 4 0:05:21 11,206
82 219 0:21:28 Van Laethgh Christof M84 M Sen N.A. 4 0:05:22 11,180
83 168 0:21:29 Vermeylen Charlotte V96 V Jun Dac 4 0:05:22 11,171
84 275 0:21:31 Seyers Kevin M83 M Sen Kwb Wambeek 4 0:05:23 11,154
85 811 0:21:33 Baudewijn Anne-Marie V64 V Mas B Liekerk Jogging Team 4 0:05:23 11,137
86 238 0:21:35 Knops Warre M99 M Jun Leeuwerik 4 0:05:24 11,120
87 287 0:21:36 Knops Hans M66 M Vet A Leeuwerik 4 0:05:24 11,111
88 205 0:21:37 Janssens Dirk M63 M Vet A Dac 4 0:05:24 11,103
89 217 0:21:40 Blommaerts Annie V// #N/B Kwb Wambeek 4 0:05:25 11,077
90 824 0:21:41 Haegeman Andre M60 M Vet B Acp 4 0:05:25 11,068
91 189 0:21:43 Van Geit Gustaaf M44 M Vet C Palieters 4 0:05:26 11,051
92 128 0:21:45 De Koster Berdien V93 V Jun Leeuwerik 4 0:05:26 11,034
93 816 0:21:49 Van Craenen Wout M00 M Jun Liekerk Jogging Team 4 0:05:27 11,001
94 257 0:21:52 Cmninny Marcel M50 M Vet C Beersel Vrije Loopers 4 0:05:28 10,976
95 201 0:21:53 Borremans Sofie V85 V Sen Kwb Wambeek 4 0:05:28 10,967
96 68 0:21:54 Timmermans Denis M55 M Vet B Kwb Wambeek 4 0:05:29 10,959
97 180 0:22:00 Verbrugghen Jona V82 V Sen N.A. 4 0:05:30 10,909
98 179 0:22:01 Vandevelde Bart M76 M Sen Leeuwerik 4 0:05:30 10,901
99 289 0:22:03 Verbraekel Pascal M67 M Vet A Vliersele Sportief 4 0:05:31 10,884
100 279 0:22:07 De Akker Ward M97 M Jun N.A. 4 0:05:32 10,852
101 815 0:22:08 Meysmans Hilde V73 V Mas A Liekerk Jogging Team 4 0:05:32 10,843
102 134 0:22:13 Agneessens Marc M76 M Sen N.A. 4 0:05:33 10,803
103 51 0:22:14 Hertveldt Jonas M97 M Jun Kwb Wambeek 4 0:05:33 10,795
104 249 0:22:15 Simon Philippe M87 M Sen Dac 4 0:05:34 10,787
105 262 0:22:24 Gelders Matthew M00 M Jun N.A. 4 0:05:36 10,714
106 256 0:22:26 Heerwegh Merel V88 V Sen Bvl 4 0:05:37 10,698
107 138 0:22:33 Van Bourgogne Daniel M70 M Vet A Daneclub 4 0:05:38 10,643
108 161 0:22:37 Michiels Greta V60 V Mas B Bvl 4 0:05:39 10,612
109 144 0:22:39 De Wilde Staf M47 M Vet C N.A. 4 0:05:40 10,596
110 832 0:22:41 Vaeyens Mirianne V72 V Mas A Liekerk Jogging Team 4 0:05:40 10,580
111 812 0:22:43 Baudewijn Nadini V70 V Mas A Liekerk Jogging Team 4 0:05:41 10,565
112 66 0:22:45 Roelandts Olivier M61 M Vet B Joggers Beersel 4 0:05:41 10,549
113 211 0:22:49 Soumillion Maarten M94 M Jun Leeuwerik 4 0:05:42 10,519
114 67 0:22:53 Dingemans Tim M86 M Sen Leeuwerik 4 0:05:43 10,488
115 136 0:23:09 Martyn Lucas M98 M Jun Daneclub 4 0:05:47 10,367
116 183 0:23:14 Platteau Jahes M99 M Jun Aernat 4 0:05:48 10,330
117 284 0:23:23 Deneef Tina V93 V Jun Leeuwerik 4 0:05:51 10,264
118 212 0:23:25 Soumillion Stijn M90 M Sen Leeuwerik 4 0:05:51 10,249
119 267 0:23:37 Van Der Meersch Gino M64 M Vet A N.A. 4 0:05:54 10,162
120 823 0:23:45 Doms Frieda V62 V Mas B Acp 4 0:05:56 10,105
121 198 0:23:53 Verhellen Stephan M65 M Vet A Acp 4 0:05:58 10,049
122 239 0:24:06 Beulens Eric M60 M Vet B Leeuwerik 4 0:06:01 9,959
123 107 0:24:12 De Kock Matthias M93 M Jun De Mollekes 4 0:06:03 9,917
124 290 0:24:17 Faignaert Laurence V67 V Mas A Vliersele Sportief 4 0:06:04 9,883
125 203 0:24:19 Jovrobs Gaston M49 M Vet C Na 4 0:06:05 9,870
126 814 0:24:22 Vandendriessche Nadini V65 V Mas B N.A. 4 0:06:05 9,850
127 835 0:24:29 Van Steenbergen Guido M57 M Vet B Liekerk Jogging Team 4 0:06:07 9,803
128 223 0:24:38 Goubert Sara M82 M Sen N.A. 4 0:06:09 9,743
129 199 0:24:40 De Coninck Marc M M Cat Onb Jcl Liedekerke 4 0:06:10 9,730
130 271 0:24:43 Louw Hilde V64 V Mas B Leeuwerik 4 0:06:11 9,710
131 110 0:24:44 Heremans Gunther M74 M Sen Liekerk Jogging Team 4 0:06:11 9,704
132 206 0:24:50 Michiels Matthias M99 M Jun N.A. 4 0:06:12 9,664
133 204 0:25:01 Stevens Serge M59 M Vet B Leeuwerik 4 0:06:15 9,594
134 273 0:25:04 De Groot Erwin M75 M Sen N.A. 4 0:06:16 9,574
135 131 0:25:10 Mertens Arno M99 M Jun Leeuwerik 4 0:06:17 9,536
136 64 0:25:14 Permentier Patrick M67 M Vet A Leeuwerik 4 0:06:18 9,511
137 268 0:25:18 Hamels Luc M56 M Vet B Start 2 Run 4 0:06:19 9,486
138 80 0:25:26 Van Bont Jozef M50 M Vet C Leeuwerik 4 0:06:22 9,436
139 192 0:25:41 Dixon Eileen V74 V Mas A Liekerk Jogging Team 4 0:06:25 9,345
140 193 0:25:43 Dixon Alain M46 M Vet C Liekerk Jogging Team 4 0:06:26 9,332
141 72 0:25:44 Bernau Shauni V98 V Jun Liekerk Jogging Team 4 0:06:26 9,326
142 133 0:25:47 Baeyens Maurits M78 M Sen N.A. 4 0:06:27 9,308
143 274 0:25:50 Meremans Ward M82 M Sen N.A. 4 0:06:28 9,290
144 817 0:25:51 Schelfhout Bettina V68 V Mas A Start 2 Run 4 0:06:28 9,284
145 278 0:25:55 Van Voerenbergh C M67 M Vet A N.A. 4 0:06:29 9,260
146 124 0:25:56 Vanderstappen Jos M64 M Vet A N.A. 4 0:06:29 9,254
147 808 0:26:01 Hermans Zeno M00 M Jun Ars 4 0:06:30 9,225
148 170 0:26:03 De Camps Edwin M57 M Vet B Run & Fun 4 0:06:31 9,213
149 151 0:26:04 Duyck Mike M78 M Sen Daneclub 4 0:06:31 9,207
150 809 0:26:05 Neckebroeck Anita V67 V Mas A Ars 4 0:06:31 9,201
151 76 0:26:11 Charnet Heidi V74 V Mas A Run & Fun 4 0:06:33 9,166
152 210 0:26:12 Soumillion Dominique M64 M Vet A Leeuwerik 4 0:06:33 9,160
153 61 0:26:14 De Haes Maryke V56 V Mas C Leeuwerik 4 0:06:34 9,149
154 53 0:26:18 Du Laing Petra V69 V Mas A Kwb Wambeek 4 0:06:34 9,125
155 153 0:26:21 Ammendyck Lisa V96 V Jun Leeuwerik 4 0:06:35 9,108
156 87 0:26:23 Dehaever Mariam V50 V Mas C Jc Oetingen 4 0:06:36 9,097
157 71 0:26:24 Cosijns Ingrid V71 V Mas A Liekerk Jogging Team 4 0:06:36 9,091
158 281 0:26:26 Matthys Ronny M66 M Vet A Start 2 Run 4 0:06:36 9,079
159 119 0:26:33 Minner Johan M71 M Vet A N.A. 4 0:06:38 9,040
160 214 0:26:34 Vastarella Marco M66 M Vet A Bvl 4 0:06:38 9,034
161 165 0:26:37 Taelemans John M63 M Vet A Lond 4 0:06:39 9,017
162 155 0:26:39 Hemels Yente M99 M Jun Leeuwerik 4 0:06:40 9,006
163 52 0:26:40 Jans Carina V65 V Mas B Kwb Wambeek 4 0:06:40 9,000
164 215 0:26:43 De Nil Andre M68 M Vet A Ars 4 0:06:41 8,983
165 263 0:26:48 Van Den Eynde Lies V83 V Sen N.A. 4 0:06:42 8,955
166 130 0:26:50 Convers Pascale V71 V Mas A Leeuwerik 4 0:06:43 8,944
167 241 0:26:52 Stiens Rudi M58 M Vet B Leeuwerik 4 0:06:43 8,933
168 231 0:26:56 Vertongen Stien V99 V Jun N.A. 4 0:06:44 8,911
169 92 0:27:02 Gerreteen Paulien V99 V Jun N.A. 4 0:06:45 8,878
170 141 0:27:03 Timmermans Marie-Jeanne V65 V Mas B Kwb Wambeek 4 0:06:46 8,872
171 118 0:27:05 Benoot Nathalie V V Cat Onb N.A. 4 0:06:46 8,862
172 807 0:27:11 Geeraerts Els V69 V Mas A Liekerk Jogging Team 4 0:06:48 8,829
173 182 0:27:12 Croon Christian M54 M Vet B Joggers Beersel 4 0:06:48 8,824
174 245 0:27:13 Doms Luc M61 M Vet B N.A. 4 0:06:48 8,818
175 272 0:27:14 Van Der Voorde Ann V75 V Mas A Start 2 Run 4 0:06:48 8,813
176 142 0:27:17 Francois Casper M99 M Jun Wk Noord-West Brabant 4 0:06:49 8,797
177 156 0:27:18 Moerenhout Jos M35 M Vet D Spvi 4 0:06:49 8,791
178 225 0:27:23 Vergauwen Jarno M99 M Jun Ac Opwijk 4 0:06:51 8,764
179 299 0:27:24 Blauwaert Vanessa V80 V Sen Leeuwerik 4 0:06:51 8,759
180 78 0:27:26 De Weerdt Katleen V82 V Sen Leeuwerik 4 0:06:51 8,748
181 190 0:27:28 Van Schuerbeeck Erik M53 M Vet B Sint Jozef 4 0:06:52 8,738
182 86 0:27:36 Deville Mie V53 V Mas C Jc Oetingen 4 0:06:54 8,696
183 240 0:27:47 Vanbeneden Karim V62 V Mas B Leeuwerik 4 0:06:57 8,638
184 285 0:27:51 Deneef Ine V95 V Jun Leeuwerik 4 0:06:58 8,618
185 266 0:27:57 Hamels Joke V82 V Sen Start 2 Run 4 0:06:59 8,587
186 154 0:27:59 Annendyck Nele V97 V Jun Leeuwerik 4 0:07:00 8,577
187 175 0:28:04 Walravens Lydia V52 V Mas C Leeuwerik 4 0:07:01 8,551
188 242 0:28:05 Carels Hilde M61 M Vet B Leeuwerik 4 0:07:01 8,546
189 83 0:28:06 Van Schepdael Peggy V58 V Mas B Jc Oetingen 4 0:07:01 8,541
190 146 0:28:10 Eckeman Louis M00 M Jun N.A. 4 0:07:02 8,521
191 195 0:28:13 Rasschaert Vanessa V79 V Sen Start 2 Run 4 0:07:03 8,506
192 255 0:28:18 Ramon Johan M77 M Sen Leeuwerik 4 0:07:04 8,481
193 258 0:28:28 De Zutter Sandra V72 V Mas A Start 2 Run 4 0:07:07 8,431
194 831 0:28:30 Blommaerd Arne M96 M Jun N.A. 4 0:07:07 8,421
195 216 0:28:32 Vaes Diana V55 V Mas C N.A. 4 0:07:08 8,411
196 259 0:28:34 Moens Karine V66 V Mas B Start 2 Run 4 0:07:09 8,401
197 261 0:28:35 Depeet Valerie V78 V Sen Start 2 Run 4 0:07:09 8,397
198 105 0:28:38 Goelens Marie-Rose V V Cat Onb Liekerk Jogging Team 4 0:07:09 8,382
199 73 0:28:40 Eylenbosch Suzanne V58 V Mas B Kwb Wambeek 4 0:07:10 8,372
200 830 0:28:43 Bolijn Celine V96 V Jun N.A. 4 0:07:11 8,358
201 233 0:28:45 Clottemans Ingrid V72 V Mas A Kwb Wambeek 4 0:07:11 8,348
202 196 0:28:47 Verlinden Karin V61 V Mas B Leeuwerik 4 0:07:12 8,338
203 132 0:28:49 Huygh Bart M43 M Vet C Leeuwerik 4 0:07:12 8,329
204 69 0:29:02 D’Hont Marina V// #N/B Leeuwerik 4 0:07:15 8,266
205 70 0:29:04 Hendrickx Nadine V59 V Mas B Leeuwerik 4 0:07:16 8,257
206 208 0:29:07 Op ‘T Eynde Sonja V66 V Mas B Leeuwerik 4 0:07:17 8,243
207 112 0:29:12 Heremans Yari M98 M Jun Liekerk Jogging Team 4 0:07:18 8,219
208 85 0:29:22 De Boeve Carline V60 V Mas B Jc Oetingen 4 0:07:20 8,173
209 177 0:29:26 Vanderstraeten Piet M45 M Vet C Ac Opw 4 0:07:21 8,154
210 127 0:29:29 Claes Marijke V73 V Mas A Acp 4 0:07:22 8,140
211 197 0:29:34 Van Den Berghe Kathleen V72 V Mas A Acp 4 0:07:24 8,117
212 146 0:29:37 Eckeman Louis M00 M Jun N.A. 4 0:07:24 8,104
213 139 0:29:38 Matthys Lincy V95 V Jun Kwb Wambeek 4 0:07:24 8,099
214 117 0:29:43 Puttaert Felix M89 M Sen Kwb Wambeek 4 0:07:26 8,076
215 95 0:29:44 Caubergs Michel M61 M Vet B Beerselse Vrije Lopers 4 0:07:26 8,072
216 96 0:29:46 Bellemans Carine V63 V Mas B Beerselse Vrije Lopers 4 0:07:26 8,063
217 60 0:29:48 Van Akker Roger M44 M Vet C Bvl 4 0:07:27 8,054
218 828 0:29:51 Massaer Evy V84 V Sen Leeuwerik 4 0:07:28 8,040
219 265 0:29:52 Smets Sonja V57 V Mas B Leeuwerik 4 0:07:28 8,036
220 185 0:30:12 Vanthomme Dirk M68 M Vet A N.A. 4 0:07:33 7,947
221 820 0:30:13 De Man Joris M83 M Sen N.A. 4 0:07:33 7,943
222 191 0:30:14 Van Schuerbeeck Stephanie V88 V Sen Sint Jozef 4 0:07:33 7,938
223 106 0:30:22 De Mol Rino M00 M Jun Kwb Wambeek 4 0:07:36 7,903
224 97 0:30:27 Desmet Jeannine V41 V Mas D Leeuwerik 4 0:07:37 7,882
225 54 0:30:29 Van Den Broeke Dolf M32 M Vet D Beerselse Vrije Lopers 4 0:07:37 7,873
226 56 0:30:33 Beelen Lisette V50 V Mas C Leeuwerik 4 0:07:38 7,856
227 163 0:30:37 Loonen Willem M47 M Vet C Bvl 4 0:07:39 7,839
228 122 0:30:40 De Schrijver Rika V70 V Mas A Liekerk Jogging Team 4 0:07:40 7,826
229 94 0:31:05 De Becq Yante M07 M Jun Joggers Beersel 4 0:07:46 7,721
230 93 0:31:07 De Becq Bjorn M77 M Sen Joggers Beersel 4 0:07:47 7,713
231 125 0:31:17 Fremery Elisabeth V58 V Mas B Joggers Beersel 4 0:07:49 7,672
232 243 0:31:43 Merens Emiel M51 M Vet C 4 0:07:56 7,567
233 111 0:31:47 Dierickx Nancy V74 V Mas A Liekerk Jogging Team 4 0:07:57 7,551
234 172 0:31:51 Saerens O V69 V Mas A Liekerk Jogging Team 4 0:07:58 7,535
235 293 0:31:53 Heymans Ilse V73 V Mas A N.A. 4 0:07:58 7,527
236 167 0:31:54 Berckmans Martine V66 V Mas B Start 2 Run 4 0:07:58 7,524
237 829 0:31:57 Massaer Lies V82 V Sen Leeuwerik 4 0:07:59 7,512
238 149 0:32:00 D’Hose Soetkin M97 M Jun N.A. 4 0:08:00 7,500
239 77 0:32:02 De Weerdt Marijke V77 V Sen N.A. 4 0:08:00 7,492
240 90 0:32:03 Vanzeelbroeck Paula V52 V Mas C Leeuwerik 4 0:08:01 7,488
241 295 0:32:10 De Pauw Alix V98 V Jun Leeuwerik 4 0:08:02 7,461
242 184 0:32:12 Vandenplas Hannah V99 V Jun Leeuwerik 4 0:08:03 7,453
243 200 0:32:13 Vanderbosch Ann V72 V Mas A N.A. 4 0:08:03 7,450
244 188 0:32:20 Vierendeel Rita V60 V Mas B Leeuwerik 4 0:08:05 7,423
245 296 0:32:21 Aerts Eva V66 V Mas B Leeuwerik 4 0:08:05 7,419
246 159 0:32:24 Bilteryst Annemie V80 V Sen Leeuwerik 4 0:08:06 7,407
247 234 0:32:32 Vandergucht Els V72 V Mas A Leeuwerik 4 0:08:08 7,377
248 101 0:32:43 Van Puyvelde Alain M60 M Vet B Joggers Beersel 4 0:08:11 7,336
249 100 0:32:48 Swalus Sophia V62 V Mas B Joggers Beersel 4 0:08:12 7,317
250 65 0:32:50 Mc Cullough Chantal V61 V Mas B Joggers Beersel 4 0:08:12 7,310
251 63 0:33:05 Nieuwlandt Christine V61 V Mas B Leeuwerik 4 0:08:16 7,254
252 235 0:33:21 Knops Lotte V95 V Jun Leeuwerik 4 0:08:20 7,196
253 288 0:33:23 Knops Sara V98 V Jun Leeuwerik 4 0:08:21 7,189
254 292 0:33:24 De Smedt Patricia M68 M Vet A Leeuwerik 4 0:08:21 7,186
255 181 0:34:31 Deneve Herman M38 M Vet D Palieters 4 0:08:38 6,953
256 253 0:34:34 Ide Albertus M61 M Vet B N.A. 4 0:08:39 6,943
257 148 0:35:14 D’Hose Jente M00 M Jun N.A. 4 0:08:48 6,812
258 280 0:35:25 Van Der Straeten Annick V66 V Mas B Start 2 Run 4 0:08:51 6,776
259 186 0:35:28 Roelandts Sofie V71 V Mas A N.A. 4 0:08:52 6,767
260 227 0:35:51 Van Hooff Jean M38 M Vet D Joggers Beersel 4 0:08:58 6,695
261 228 0:35:52 Floreten M-Jeanne V47 V Mas C Joggers Beersel 4 0:08:58 6,691
262 270 0:36:46 Laus Marie-Louise V55 V Mas C Leeuwerik 4 0:09:11 6,528
263 113 0:36:54 Holsters Renee V51 V Mas C N.A. 4 0:09:13 6,504
264 57 0:37:25 Vanbinnebeek Adrienne V29 V Mas D Kkh 4 0:09:21 6,414
265 173 0:37:31 Van Hecke Gisela V V Cat Onb Leeuwerik 4 0:09:23 6,397
266 79 0:37:32 Gilis Alfons M31 M Vet D Leeuwerik 4 0:09:23 6,394
267 74 0:37:36 Nevens Frans M40 M Vet D Asse-Ter-Heide 4 0:09:24 6,383
268 174 Nolemans Francis M41 M Vet D Leeuwerik 4
269 162 De Smet Jean-Pierre M38 M Vet D Leeuwerik 4
270 300 De Bosschier Marc M61 M Vet B Leeuwerik 4
271 825 Stiens Luk M57 M Vet B Leeuwerik 4
272 806 Vandenbosch Rolanda V65 V Mas B Leeuwerik 4
273 826 Vanderscheuren Marie-Rose V59 V Mas B Leeuwerik 4
274 248 Lebegge Roger M54 M Vet B Leeuwerik 4
275 98 Van Diest Marleen V57 V Mas B Leeuwerik 4
276 247 Bardijn Jeanne V48 V Mas C Leeuwerik 4
277 158 Mordijck Lieve V58 V Mas B Leeuwerik 4
278 152 Van Heffen Els V67 V Mas A Leeuwerik 4